Aérodrome :
LOGIN :

S'inscrire | Disclaimer

   EN    FR    IT 

 










Légende :    VFR   VFR Marginal   IFR   IFR Intensif   IFR Très Intensif
Visi : 
Plafond : 
>= 8 km
>= 3000ft
5 à 8 km
1000 à 3000 ft
1500m à 5 km
500 à 1000 ft
800 à 1500m
200 à 500 ft
< 800m
< 200 ft
Symboles :   Orages  Brouillard  Fortes neiges  Fortes précipitations  Vent > 20 kt
SIGMETs :   Divers  Orages  Givrage  Turbulence  Onde Orograph.  Cendres Volcan.






- Altitude de l'aérodrome : 75 ft
- Code IATA : MRH


EGYM - RAF Marham

DERNIER METAR :
  • 171650Z 24006KT 9999 VCSH FEW026CB 14/08 Q1006 BLU

METARs EXPIRÉS :
  • 171550Z 25003KT 8000 HZ FEW025CB SCT045 13/08 Q1006 BLU NOSIG RMK BLU BLU
  • 171523Z 28005KT 6000 HZ SCT020CB SCT040 11/10 Q1006 WHT BECMG FEW025 RMK WHT BECMG BLU
  • 171500Z 27013KT 3000 SHRA BKN020CB 10/09 Q1006 YLO1 BECMG 9999 NSW RMK YLO1 BECMG BLU

Prévision TAF périmée.



MET'MAP, la Météo Aéronautique d'un coup d'oeil ! - Copyright ORBIFLY Décembre 2007 - Disclaimer

ORBIFLY MET'MAP TEAM :

Programmation & Développement : Alexandra Zaïnal
Sur une idée originale de : Baudouin d'Aumeries
Assistance à la programmation : Marc-Olivier Méhu
Soutien technique & logistique : Manuel Goepfert

Contact : metmap@orbifly.com




SOURCES & CREDITS :

   NOAA